Nashville, TN

3:02 PM CST on December 12, 2019 (GMT -0600)
Nashville International

Weather History for KBNA - November, 2019

Change the Weather History Date:

Thursday, November 14, 2019

  Actual Average Record
Temperature  
Mean Temperature 42 °F 50 °F  
Max Temperature 55 °F 61 °F 80 °F (1973)
Min Temperature 28 °F 40 °F 18 °F (1986)
Degree Days  
Heating Degree Days 24    
Month to date heating degree days 297  
Since 1 July heating degree days 440  
Cooling Degree Days 0    
Month to date cooling degree days 0  
Year to date cooling degree days 2280  
Moisture  
Dew Point 23 °F    
Average Humidity 50    
Maximum Humidity 75    
Minimum Humidity 28    
Precipitation  
Precipitation 0.00 in 0.14 in 3.79 in (1915)
Month to date precipitation 1.09 1.75  
Year to date precipitation 54.97 40.45  
Sea Level Pressure  
Sea Level Pressure 30.29 in    
Wind  
Wind Speed 4 mph ()    
Max Wind Speed 15 mph    
Max Gust Speed 21 mph    
Visibility 10.0 miles    
Events      
T = Trace of Precipitation, MM = Missing Value Source: Averaged Metar Reports

Daily Weather History Graph

Daily Weather History Graph

Search for Another Location

Airport or City:

Astronomy

Nov. 14, 2019 Rise Set
Actual Time 6:22 AM CST 4:39 PM CST
Civil Twilight 5:54 AM CST 5:06 PM CST
Nautical Twilight 5:23 AM CST 5:37 PM CST
Astronomical Twilight 4:53 AM CST 6:08 PM CST
Moon 6:27 PM CST (11/14) 8:15 AM CST (11/14)
Length of Visible Light 11h 11m
Length of Day
10h 17m
Waning Gibbous, 95% of the Moon is Illuminated
Nov 14
Waning Gibbous
Nov 19
Last Quarter
Nov 26
New
Dec 4
First Quarter
Dec 11
Full

Hourly Weather History & Observations

Time (CST) Temp. Windchill Dew Point Humidity Pressure Visibility Wind Dir Wind Speed Gust Speed Precip Events Conditions
12:53 AM 32.0 °F 28.7 °F 21.9 °F 66% 30.25 in 10.0 mi South 3.5 mph - N/A   Mostly Cloudy
1:53 AM 30.9 °F 25.2 °F 21.9 °F 69% 30.25 in 10.0 mi South 5.8 mph - N/A   Mostly Cloudy
2:53 AM 32.0 °F - 23.0 °F 69% 30.27 in 10.0 mi Calm Calm - N/A   Mostly Cloudy
3:53 AM 32.0 °F - 23.0 °F 69% 30.27 in 10.0 mi Calm Calm - N/A   Mostly Cloudy
4:53 AM 32.0 °F - 24.1 °F 73% 30.29 in 10.0 mi Calm Calm - N/A   Mostly Cloudy
5:53 AM 28.9 °F 23.9 °F 21.9 °F 75% 30.30 in 10.0 mi South 4.6 mph - N/A   Mostly Cloudy
6:53 AM 30.0 °F 24.1 °F 23.0 °F 75% 30.31 in 10.0 mi South 5.8 mph - N/A   Scattered Clouds
7:53 AM 37.0 °F 31.6 °F 25.0 °F 62% 30.32 in 9.0 mi SSE 6.9 mph - N/A   Scattered Clouds
8:53 AM 42.1 °F 35.7 °F 25.0 °F 51% 30.31 in 10.0 mi South 11.5 mph - N/A   Scattered Clouds
9:53 AM 46.0 °F 41.4 °F 24.1 °F 42% 30.31 in 10.0 mi SSW 9.2 mph - N/A   Scattered Clouds
10:53 AM 48.0 °F - 24.1 °F 39% 30.31 in 10.0 mi SSW 8.1 mph - N/A   Scattered Clouds
11:53 AM 51.1 °F - 24.1 °F 35% 30.29 in 10.0 mi West 5.8 mph - N/A   Scattered Clouds
12:53 PM 52.0 °F - 21.0 °F 30% 30.27 in 10.0 mi West 4.6 mph - N/A   Mostly Cloudy
1:53 PM 53.1 °F - 21.9 °F 30% 30.25 in 10.0 mi WNW 6.9 mph - N/A   Scattered Clouds
2:53 PM 54.0 °F - 21.0 °F 28% 30.27 in 10.0 mi North 4.6 mph - N/A   Mostly Cloudy
3:53 PM 50.0 °F - 21.0 °F 32% 30.27 in 10.0 mi North 6.9 mph - N/A   Mostly Cloudy
4:53 PM 48.9 °F - 19.9 °F 32% 30.28 in 10.0 mi North 8.1 mph - N/A   Mostly Cloudy
5:53 PM 46.9 °F - 19.9 °F 34% 30.30 in 10.0 mi North 6.9 mph - N/A   Mostly Cloudy
6:53 PM 45.0 °F 41.8 °F 21.9 °F 40% 30.30 in 10.0 mi North 5.8 mph - N/A   Scattered Clouds
7:53 PM 44.1 °F 41.5 °F 21.9 °F 42% 30.31 in 10.0 mi North 4.6 mph - N/A   Scattered Clouds
8:53 PM 42.1 °F 37.7 °F 23.0 °F 47% 30.32 in 10.0 mi North 6.9 mph - N/A   Scattered Clouds
9:53 PM 41.0 °F - 21.9 °F 47% 30.33 in 10.0 mi Calm Calm - N/A   Overcast
10:53 PM 39.0 °F 36.8 °F 24.1 °F 55% 30.32 in 10.0 mi NNW 3.5 mph - N/A   Overcast
11:53 PM 39.9 °F 37.8 °F 23.0 °F 51% 30.33 in 10.0 mi North 3.5 mph - N/A   Mostly Cloudy